Theta_e
308 308 309 310 311 311 312 312 313 313 313 312 309 307 307 308 308 308 308 308 309 309 310 309 309 309 308 308 309 309 309 308 306 307 307 307 307 307 307 307 306 306 307 307 307 308 308 308 309 308 308 308 308 308 308 309 310 310 314 318 313 311 310 307 309 306 304 307 302 300 302 303 305 303 303 304 303 304 304 304 305 305 305 305 306 306 306 306
309 309 310 310 311 311 312 312 313 313 313 313 310 307 306 307 308 308 308 308 309 309 309 309 308 308 308 309 308 309 309 308 306 306 306 306 307 306 306 307 307 307 307 308 308 308 308 308 308 308 308 308 308 308 308 308 308 310 316 318 312 313 308 303 305 302 303 306 301 300 302 302 304 303 303 304 304 303 303 304 304 304 305 306 306 306 306 306
309 309 309 310 311 311 312 312 313 313 313 314 312 309 307 307 308 308 308 308 309 308 309 308 308 308 308 309 309 309 309 308 306 306 307 306 307 306 306 307 307 308 308 308 308 308 308 307 308 308 308 308 308 308 307 308 308 306 311 316 313 310 304 301 303 302 303 304 301 301 302 301 303 302 303 304 303 302 302 304 303 304 307 308 308 307 306 306
311 310 309 310 311 311 312 312 312 312 312 313 314 313 310 308 308 308 308 308 308 308 308 308 308 308 309 309 309 309 309 309 306 306 307 307 307 307 307 308 308 308 308 308 308 308 308 308 309 308 308 308 307 308 307 306 307 306 309 313 308 303 305 304 303 303 303 303 303 302 301 302 302 302 302 302 304 304 303 305 305 306 308 309 308 307 306 306
311 312 311 310 311 311 312 312 312 313 312 312 313 313 312 309 308 308 308 308 308 308 308 309 308 309 309 309 309 310 311 309 306 306 307 307 308 307 307 307 308 308 308 308 308 308 308 308 309 308 308 308 307 307 306 304 306 306 305 305 302 301 306 305 302 303 303 303 302 301 302 304 302 302 302 301 304 306 306 307 307 307 308 308 307 307 306 306
308 310 312 312 312 311 312 313 314 314 314 313 312 312 313 311 310 310 310 309 308 307 308 309 309 309 309 309 309 311 312 309 306 306 307 307 308 308 308 307 308 308 308 308 308 308 309 308 308 308 307 307 307 307 306 304 305 309 305 300 301 302 303 303 302 303 302 303 302 301 303 303 301 302 302 301 303 306 307 307 307 307 307 306 307 307 306 307
308 308 310 311 312 313 313 313 314 315 315 314 312 311 312 312 311 311 310 309 308 307 308 309 309 309 309 309 309 309 310 308 306 306 307 307 308 308 308 308 308 308 308 308 308 308 308 308 309 308 307 306 305 304 305 304 303 310 308 301 301 301 301 303 302 303 302 303 303 302 302 301 302 303 302 302 305 307 307 306 306 306 306 306 306 306 306 306
309 308 308 308 310 312 314 314 314 314 315 315 314 311 311 312 312 311 310 309 308 308 308 309 309 309 309 309 309 308 307 306 306 307 306 307 307 308 308 308 308 308 308 308 308 309 308 308 309 308 307 305 306 305 304 304 304 308 308 301 301 301 301 302 302 303 302 302 303 302 302 302 303 303 301 303 307 307 306 306 306 306 306 306 306 306 306 306
309 309 309 308 309 309 311 314 314 315 314 314 315 313 311 311 311 311 310 309 308 308 308 308 309 309 309 309 309 309 307 307 307 307 306 307 307 307 308 308 308 308 308 308 308 309 309 309 308 308 307 305 305 305 303 306 306 304 303 302 301 302 302 302 302 303 302 303 302 303 303 303 302 302 302 305 307 307 307 306 306 306 306 307 307 308 308 307
309 309 309 309 309 309 309 310 313 315 316 315 316 315 312 310 310 311 310 309 308 307 308 308 308 308 308 308 309 309 307 307 307 306 307 307 307 307 308 308 308 308 308 308 308 309 309 308 308 308 308 306 305 304 302 306 306 302 302 302 302 302 302 303 303 302 303 303 302 304 304 303 301 302 304 307 307 306 307 307 307 307 307 308 309 308 308 308
310 309 309 309 309 309 309 309 310 313 316 317 316 316 314 311 310 310 310 310 308 307 308 308 308 308 308 308 309 308 307 307 307 306 306 307 307 307 308 308 308 308 308 308 308 309 308 308 309 308 308 307 305 304 302 303 303 302 302 303 302 302 302 302 302 302 303 303 302 302 301 301 300 301 305 307 307 307 306 307 307 307 308 309 308 308 308 308
310 309 309 309 309 309 309 309 309 310 313 316 317 317 316 313 311 310 310 309 308 307 307 308 308 308 307 308 308 308 307 307 307 307 307 307 307 307 308 308 308 308 308 308 308 308 308 308 308 308 308 306 305 305 304 303 303 302 303 305 306 307 306 302 301 302 302 303 302 301 304 306 302 303 309 308 307 307 307 308 308 308 309 309 309 309 309 309
310 309 310 309 309 309 309 309 310 310 311 314 316 317 316 315 313 310 310 310 309 307 307 308 308 307 307 307 307 307 307 307 307 307 307 307 306 307 307 307 308 308 307 308 308 308 308 308 307 307 306 305 304 304 304 303 302 304 303 306 313 315 311 302 300 302 302 304 303 302 309 314 307 305 307 307 306 307 307 308 309 309 310 310 310 309 310 310
310 310 310 310 310 309 309 309 309 309 310 311 314 316 316 316 314 312 310 310 309 307 307 307 307 307 307 307 307 306 307 307 307 307 307 307 307 307 307 307 308 307 308 307 308 307 307 307 307 307 306 305 304 304 309 307 306 308 304 310 315 313 312 305 300 302 303 304 303 303 310 314 310 307 306 306 306 306 306 308 309 310 310 310 310 310 310 310
310 310 309 310 310 309 309 309 309 309 309 310 312 315 316 316 315 313 311 311 309 308 308 307 307 307 307 307 307 307 307 307 307 307 307 307 307 307 307 307 307 307 307 307 307 307 307 307 307 306 304 305 305 308 316 314 314 313 308 317 317 309 316 310 299 300 303 304 303 304 309 313 310 306 306 306 306 306 305 309 310 309 310 310 311 311 311 311
309 309 310 310 310 310 309 309 309 308 309 310 310 313 316 316 315 313 313 312 310 308 308 308 308 307 308 308 307 307 307 307 308 307 307 307 307 308 307 307 307 307 307 307 309 308 307 307 306 306 305 307 313 320 321 317 323 319 311 316 316 312 317 311 302 299 300 302 303 305 308 311 310 306 306 307 306 305 305 308 310 309 310 311 311 311 311 311
308 309 309 310 310 310 310 309 309 308 308 309 309 312 315 316 314 313 313 313 311 308 308 309 309 308 308 309 308 307 307 308 308 307 308 308 308 308 308 308 307 307 308 310 311 311 311 309 308 309 307 307 313 323 319 314 318 318 314 314 311 311 312 309 307 300 298 303 305 305 306 309 309 304 305 307 305 305 306 308 309 309 311 312 311 311 311 311
307 308 308 309 310 310 310 309 309 309 308 308 309 311 315 317 315 313 313 314 310 308 308 308 308 308 309 308 308 308 307 307 307 308 308 307 309 309 309 309 308 309 310 311 312 312 311 308 309 313 312 312 317 323 320 312 310 310 311 311 308 310 309 309 311 303 301 307 306 307 307 309 308 302 303 306 305 305 306 307 308 310 312 312 312 311 311 311
305 307 308 309 309 309 310 309 309 309 308 308 309 310 314 316 315 314 313 312 309 308 310 309 309 311 311 309 309 308 307 307 307 308 308 308 308 308 311 311 310 311 311 312 313 310 308 308 309 313 314 315 315 314 313 309 308 308 308 309 309 312 310 309 310 303 300 307 309 308 309 308 308 305 304 306 306 305 307 309 309 311 312 312 312 312 311 311
305 305 306 307 309 309 309 310 309 308 308 309 309 311 315 315 314 314 312 310 309 309 310 310 310 311 310 309 308 308 307 307 308 308 307 308 308 309 311 310 311 313 311 314 316 307 308 314 312 308 309 309 306 304 307 306 307 310 312 314 312 312 314 311 308 301 297 306 310 306 308 308 308 308 305 304 306 306 307 309 311 312 312 312 312 311 311 310
305 305 306 306 308 309 309 309 309 308 307 308 311 314 314 311 312 314 312 311 310 310 309 309 308 309 309 307 307 307 307 308 308 308 308 308 309 310 310 311 312 312 309 307 311 308 310 315 310 304 303 303 303 303 305 306 308 312 313 316 314 311 314 310 304 303 300 304 310 306 308 310 307 308 304 301 305 308 307 308 310 312 311 311 311 310 311 311
305 305 306 306 308 309 310 309 309 308 307 309 312 314 313 311 310 311 310 311 311 310 309 307 307 308 307 306 307 306 307 309 308 308 308 307 310 311 309 313 316 313 311 309 311 314 315 309 305 300 298 299 304 305 306 309 313 316 313 313 313 309 310 307 302 306 305 304 310 310 309 309 307 308 305 300 304 307 306 307 310 311 311 310 310 310 311 310
305 306 305 306 307 308 309 309 308 308 308 310 312 313 312 310 310 310 309 310 310 309 309 308 306 307 306 306 306 307 307 308 308 307 307 307 309 309 308 315 321 316 316 321 316 315 313 306 301 297 298 303 308 306 307 309 311 315 312 310 312 308 308 307 304 307 307 302 307 310 308 309 308 310 310 303 303 306 307 309 309 309 310 310 309 309 310 310
304 305 306 306 306 308 309 309 309 308 308 310 311 311 311 309 310 311 310 309 309 310 309 307 306 306 307 306 306 307 307 306 307 306 307 308 308 309 307 310 317 314 313 321 320 316 311 303 298 298 300 306 308 307 309 310 310 314 315 312 314 310 305 307 307 306 307 302 304 309 311 317 315 313 314 307 303 306 307 309 311 309 309 309 309 309 309 310
304 303 305 306 305 307 309 309 309 309 309 310 311 310 311 310 309 311 311 310 313 314 308 307 308 307 307 308 307 308 306 306 306 306 307 307 308 310 308 306 309 310 313 315 315 314 308 299 298 304 307 309 308 310 312 311 310 313 312 309 309 309 306 309 311 308 310 308 304 305 311 324 324 318 317 314 312 313 308 306 309 310 309 309 310 309 309 310
309 305 303 305 306 306 307 309 308 308 310 310 310 310 310 311 311 311 313 315 320 318 309 306 309 308 308 307 307 308 308 308 307 306 307 307 308 309 308 307 305 307 312 310 307 306 304 298 300 307 312 311 309 310 308 308 310 306 306 304 307 308 308 311 312 307 309 309 303 303 310 317 322 319 316 315 318 319 312 307 308 309 310 310 310 310 310 310
314 310 304 303 305 306 307 308 308 308 310 309 309 310 309 311 310 309 314 317 319 316 309 307 307 308 309 306 306 308 308 310 308 306 306 306 308 307 308 310 307 307 305 305 305 305 303 303 304 308 311 309 309 307 305 305 308 307 305 304 308 307 306 308 309 307 310 309 307 308 310 310 315 318 314 310 313 316 314 312 310 308 309 310 310 310 310 310
315 314 309 304 303 306 306 307 309 308 308 309 309 309 310 311 309 310 317 318 315 313 309 308 307 308 310 306 306 306 305 309 310 308 306 306 307 307 309 310 310 311 302 304 310 308 301 306 307 309 311 309 308 307 305 304 304 307 303 303 305 304 306 308 309 312 310 308 312 313 307 308 317 321 315 309 309 311 313 316 312 308 309 310 309 310 309 310
314 315 313 307 302 305 305 306 309 308 309 309 308 309 310 310 309 311 317 316 312 312 310 308 308 307 308 308 306 305 305 307 308 308 307 307 307 307 309 306 305 309 300 302 316 309 300 304 303 305 308 308 306 302 302 305 304 304 300 303 305 304 307 308 310 313 310 309 316 313 305 307 316 322 318 309 309 313 314 316 310 307 309 310 309 310 309 310
313 314 315 312 305 303 305 306 307 308 309 308 308 310 308 311 317 315 315 316 312 310 308 307 308 306 307 309 308 305 305 305 306 307 306 307 307 305 306 304 303 310 309 307 313 307 299 301 301 301 304 303 302 300 300 302 301 301 303 306 307 306 306 307 311 311 309 317 321 310 306 308 309 319 321 311 311 315 314 314 310 306 309 310 309 310 309 309
313 313 314 315 309 303 304 305 307 309 309 309 309 309 307 314 323 319 314 315 312 311 309 307 307 308 311 311 310 309 305 304 304 306 309 308 307 306 306 306 305 313 325 321 310 303 300 304 303 300 300 300 302 303 300 298 299 302 309 313 310 311 308 310 318 313 309 324 319 308 308 307 307 319 324 316 312 312 312 315 314 308 309 310 309 310 309 309
314 314 313 315 313 307 303 304 308 309 310 311 308 309 313 314 317 318 317 317 314 314 311 307 307 311 312 310 311 312 308 305 304 306 312 309 308 311 311 313 309 309 322 321 308 305 307 307 302 298 299 300 304 306 302 301 302 305 313 316 314 317 313 315 324 313 311 319 310 306 308 305 308 314 314 315 314 310 308 310 311 307 308 311 309 309 309 309
314 314 313 313 314 310 304 303 306 306 309 311 307 310 316 316 317 318 319 318 311 308 308 307 308 309 310 310 311 309 307 307 306 305 307 306 308 314 311 309 308 307 316 313 306 308 312 307 301 302 303 298 300 306 307 308 307 308 312 314 315 316 309 313 320 309 308 312 305 303 306 307 312 310 309 313 309 305 303 303 306 306 308 311 309 309 310 309
314 314 313 313 313 313 307 303 304 305 307 307 308 314 314 314 320 319 318 319 310 306 308 308 308 309 309 310 310 308 307 307 307 306 307 307 309 314 312 305 304 311 318 311 307 310 311 310 306 304 304 299 299 304 306 308 309 310 309 307 312 316 306 309 319 314 311 313 308 303 306 315 317 307 308 307 301 301 303 304 305 305 308 310 309 310 310 309
313 314 314 314 313 313 309 304 304 305 305 306 312 316 313 313 318 318 320 320 312 309 309 305 308 311 311 313 310 306 307 307 307 306 307 309 311 316 318 313 308 311 314 312 311 307 305 307 305 299 299 299 302 301 298 304 309 307 305 305 309 314 311 309 310 310 309 312 314 309 308 316 313 306 306 302 302 303 303 304 306 306 308 310 310 310 309 309
311 312 313 314 313 312 310 305 304 304 305 308 310 313 316 316 316 317 317 313 310 311 310 308 312 312 313 316 312 306 305 307 306 307 307 308 310 312 316 318 311 308 310 314 315 309 305 308 303 298 299 297 299 299 296 302 307 304 306 311 308 305 314 314 303 301 304 308 313 310 310 312 308 309 312 309 311 311 307 305 304 305 309 309 309 311 309 310
307 309 312 313 313 313 311 305 303 303 305 308 310 314 317 314 313 316 313 307 307 310 309 313 316 313 313 315 313 309 307 308 307 309 312 311 310 310 312 313 306 305 308 308 312 314 311 310 304 299 302 298 295 297 297 297 301 305 307 311 304 301 311 315 306 308 309 310 313 310 309 311 308 310 315 313 314 316 316 309 303 304 307 308 310 310 309 310
304 307 309 311 310 311 310 306 303 304 305 306 310 314 313 308 307 310 310 306 308 308 309 314 314 312 313 313 312 309 307 311 311 310 313 312 310 311 311 311 305 301 302 301 305 311 309 311 309 299 301 301 294 297 302 298 297 302 303 302 302 307 315 311 308 315 311 307 314 314 309 307 306 310 314 314 316 320 320 313 307 306 305 307 311 310 309 310
304 306 308 309 308 308 307 305 303 303 306 307 310 312 310 309 307 306 308 308 307 308 311 315 310 308 311 312 312 309 306 312 314 310 310 309 310 308 306 309 307 301 300 300 305 309 306 309 313 301 298 300 298 300 307 306 299 298 300 301 303 310 316 312 308 313 312 308 313 316 315 311 308 312 316 315 316 320 320 316 311 306 305 309 311 310 310 309
304 306 308 307 308 309 305 303 304 305 308 309 310 310 307 307 307 305 308 308 307 308 312 314 309 308 311 311 311 309 307 311 312 310 309 308 309 310 305 306 309 304 300 299 303 309 305 303 312 306 298 301 306 305 306 309 305 302 306 307 304 304 307 309 305 306 312 316 313 310 313 315 312 311 313 311 313 316 318 318 311 304 305 311 311 310 311 309
304 305 308 307 308 308 304 304 305 306 308 307 306 308 306 306 307 307 307 307 307 307 309 311 311 311 313 311 310 310 307 310 311 309 309 307 308 310 305 303 308 307 303 302 306 309 305 307 317 313 304 307 312 303 298 302 303 304 308 310 308 306 308 310 308 305 305 310 312 309 310 313 312 311 312 312 312 310 307 307 306 304 307 310 310 310 310 309
304 305 307 307 309 308 305 306 304 303 308 308 305 306 307 307 307 307 306 306 307 306 305 309 311 311 314 313 312 311 309 310 309 307 309 310 310 309 305 301 302 303 307 311 310 306 303 308 314 314 312 311 303 295 292 295 296 299 302 305 306 308 312 313 315 313 305 302 305 307 308 311 311 312 312 308 304 301 298 299 300 304 308 310 310 310 309 309
305 306 304 304 308 308 306 307 305 303 306 307 304 303 305 306 306 306 306 306 307 307 306 308 308 309 312 310 309 310 309 309 310 310 311 312 310 306 302 300 301 301 306 310 308 303 302 306 309 313 318 311 300 295 292 291 295 301 303 301 303 307 312 316 318 315 309 306 305 305 308 312 314 313 304 297 296 297 298 300 299 302 308 309 309 310 309 309
305 305 304 302 304 307 307 308 309 309 307 304 303 304 305 305 306 307 308 308 307 307 308 309 307 307 308 305 307 311 309 308 311 310 309 310 309 303 299 300 301 301 304 306 307 304 305 310 311 310 314 314 309 306 303 298 298 305 308 303 303 306 307 309 308 305 307 311 310 309 312 314 315 315 305 300 302 302 300 303 302 303 308 309 309 310 309 308
305 305 305 304 305 307 307 307 308 309 308 306 305 306 305 304 305 307 307 307 306 305 307 308 306 306 306 304 305 308 308 307 310 309 306 308 308 301 298 300 300 300 302 302 302 302 306 311 310 309 309 309 313 317 318 313 305 304 306 303 302 304 305 307 308 306 308 311 308 310 315 312 310 313 310 309 312 309 304 306 306 305 308 309 309 309 309 308
305 305 305 305 306 307 306 305 304 305 307 307 306 307 307 305 305 306 306 306 306 305 305 306 305 305 306 305 305 308 308 306 306 307 306 309 311 303 299 300 299 299 301 301 300 302 307 309 308 311 311 310 316 319 313 310 309 309 309 305 303 302 303 308 312 310 309 308 306 309 311 308 308 309 308 308 311 312 310 306 305 307 308 309 309 309 309 309
304 305 305 305 306 305 305 305 304 304 305 305 305 307 307 306 305 305 306 306 305 305 305 305 306 307 307 307 308 309 310 306 304 305 306 310 311 303 297 299 299 299 301 301 300 303 308 308 307 310 309 308 313 312 305 306 310 312 312 309 304 301 302 307 309 308 308 308 309 310 306 306 308 307 307 308 308 310 307 302 304 308 308 308 309 308 308 308
303 304 304 305 305 305 305 305 303 303 303 303 305 306 306 307 306 305 306 306 304 305 306 306 308 309 309 311 310 309 309 308 306 306 307 310 310 305 301 299 298 299 300 299 299 302 308 311 308 306 307 308 307 305 306 308 307 309 312 312 307 302 302 305 306 306 308 309 310 310 308 308 309 307 307 308 305 306 304 302 305 307 306 307 307 306 306 306
302 303 303 304 305 304 304 305 303 303 303 303 305 307 306 307 306 305 306 306 306 306 306 306 309 310 310 310 310 309 309 308 308 308 309 310 310 308 308 305 300 299 299 300 299 300 305 313 311 304 305 309 307 304 305 306 306 307 308 309 308 305 303 304 305 305 306 308 310 309 307 308 307 306 307 306 304 304 304 304 305 305 305 306 305 305 306 306
301 302 302 302 304 303 304 305 303 304 304 303 305 306 305 305 306 305 304 305 308 308 305 306 309 309 310 309 308 308 308 309 310 310 310 311 308 307 308 311 309 301 298 301 302 299 302 312 311 304 306 312 310 304 303 303 305 306 305 306 307 304 302 301 303 304 304 305 306 305 305 306 305 305 305 305 304 304 303 303 304 304 305 304 304 305 306 307
299 300 301 301 302 303 304 305 303 304 305 304 304 305 304 305 306 305 304 305 305 307 307 308 308 308 309 308 308 308 306 307 309 308 308 308 307 306 306 308 310 308 302 301 303 302 301 307 309 304 308 315 309 305 305 303 302 303 304 306 306 303 303 303 302 303 304 304 305 304 305 306 306 306 306 304 303 302 301 302 303 304 304 304 305 306 307 309
297 298 299 300 302 302 304 304 303 304 306 305 304 304 304 305 304 304 305 305 304 305 306 306 307 307 308 308 308 307 305 305 307 305 305 305 305 304 304 304 305 308 306 302 303 304 303 308 311 307 310 314 306 304 308 306 303 306 307 307 306 303 303 304 302 302 303 304 305 306 306 307 307 307 307 305 304 302 300 301 303 304 304 305 306 306 307 308
Wind_Speed
7 8 8 8 8 8 9 9 9 9 9 10 10 8 8 6 3 0 1 3 3 2 2 3 6 7 8 9 9 8 5 3 4 3 1 2 2 5 6 6 6 5 5 4 5 5 5 5 4 3 3 3 2 3 1 1 3 4 2 3 2 2 2 4 7 6 3 1 4 9 15 10 3 7 10 7 10 15 16 21 23 24 28 29 26 22 20 16
6 6 6 6 6 6 7 7 8 9 9 10 10 9 8 8 5 2 1 2 3 4 4 6 8 9 9 9 9 9 5 2 2 3 1 1 3 5 5 6 5 4 4 4 4 4 4 3 3 3 3 3 2 1 2 0 2 2 2 3 1 4 3 3 6 7 3 2 4 10 13 12 5 5 7 6 7 10 13 20 24 28 32 30 29 28 27 25
5 4 4 4 4 5 5 6 6 8 9 10 10 9 9 8 6 3 2 4 5 7 7 8 9 10 9 8 11 10 4 3 1 3 2 0 3 5 5 5 5 4 4 3 3 3 4 3 3 3 3 2 1 1 1 2 1 1 3 3 2 5 2 2 2 3 3 0 4 8 11 12 9 5 5 5 7 6 11 19 19 25 31 27 26 28 28 29
5 4 4 4 4 4 4 4 5 6 8 9 9 10 9 8 7 4 4 6 8 10 10 10 9 9 8 9 12 8 3 2 2 3 3 1 2 4 5 5 5 4 3 3 4 3 4 4 4 3 2 2 1 1 0 5 2 1 3 2 3 4 2 2 1 0 3 3 4 6 8 8 11 9 7 6 4 7 17 25 23 24 27 23 23 25 26 29
5 5 5 5 5 5 5 5 5 5 6 8 9 9 9 8 7 7 7 7 9 10 10 10 9 7 7 9 11 5 1 2 2 4 4 2 2 3 4 6 6 5 5 5 4 4 5 6 5 4 2 1 3 1 2 6 4 3 3 1 3 4 2 2 2 0 3 5 6 7 7 5 9 11 13 10 6 11 18 19 18 18 18 18 19 19 21 24
6 6 6 6 7 7 7 6 6 6 6 7 8 9 9 9 8 9 10 11 11 8 7 7 6 5 6 10 10 5 2 1 2 4 4 3 2 3 4 6 7 7 6 6 5 6 6 5 5 3 0 2 3 3 3 5 2 2 2 1 3 3 2 2 2 1 2 6 7 7 5 5 6 7 13 17 21 26 23 17 15 14 14 15 17 18 20 21
7 7 6 6 7 8 9 8 8 7 7 7 8 8 9 9 9 10 12 13 11 6 4 5 5 6 8 9 9 6 3 2 4 4 4 4 2 4 4 6 7 7 7 6 6 6 5 4 5 3 3 2 1 1 4 5 3 4 1 1 3 2 2 3 2 2 3 3 5 5 5 5 7 5 6 18 31 33 29 26 26 25 25 26 28 28 28 28
9 8 7 7 7 8 9 10 10 10 9 8 8 8 8 9 10 10 12 14 11 5 3 5 7 8 9 8 7 6 5 4 5 5 5 5 3 4 5 6 7 7 7 6 6 5 5 3 5 3 3 2 1 1 4 3 4 5 3 3 3 3 3 4 4 3 2 1 2 4 5 5 7 6 8 24 34 30 29 30 30 30 31 31 29 28 27 29
10 9 9 8 8 7 8 10 11 11 11 10 9 8 8 8 9 10 12 13 11 6 3 5 8 9 8 7 7 6 5 6 7 5 5 5 4 5 6 6 7 8 7 6 6 6 5 3 5 4 2 2 3 2 4 2 2 4 4 5 4 3 3 3 3 3 2 1 0 3 6 6 6 6 12 24 24 19 20 19 19 20 21 21 20 20 20 23
11 10 10 10 9 8 8 9 10 11 11 11 10 9 9 8 9 10 11 12 11 8 5 4 6 7 5 6 6 3 5 7 6 5 5 4 3 3 5 6 7 8 7 6 5 5 4 4 5 5 3 4 5 4 5 3 3 5 7 7 6 3 2 2 1 3 3 3 3 4 6 7 3 0 8 17 11 9 12 11 13 15 17 18 18 18 19 22
11 11 11 11 11 10 9 8 9 10 11 10 10 10 9 9 9 9 10 11 10 8 6 4 4 6 6 6 4 2 4 5 4 5 5 4 2 2 4 5 6 6 6 5 3 1 0 1 4 6 2 3 4 6 6 7 7 7 7 5 7 5 2 4 3 5 6 3 4 4 6 5 1 3 11 16 13 14 17 17 17 18 20 21 22 24 24 27
12 12 12 12 12 11 11 9 9 9 10 10 10 10 10 9 9 9 9 10 10 8 6 4 5 8 9 7 4 2 4 3 3 4 4 4 3 1 2 3 4 5 6 5 2 1 1 1 3 3 2 6 4 4 6 7 6 4 5 2 7 7 5 8 6 6 6 2 6 5 4 4 3 9 12 12 14 17 19 20 20 20 22 24 25 27 27 27
12 12 12 13 12 12 12 11 10 9 10 10 10 10 10 9 10 9 9 9 10 9 6 5 7 10 9 5 4 3 3 2 2 3 4 4 4 2 1 1 2 2 4 3 3 2 2 1 3 3 5 7 4 5 7 5 4 2 4 3 5 7 5 8 5 6 5 2 6 4 4 6 8 15 14 10 12 14 20 24 23 23 23 22 22 21 21 20
12 13 13 13 13 13 13 13 11 10 10 10 10 9 9 9 10 9 10 9 9 8 6 6 6 7 5 3 3 3 2 1 2 2 3 3 3 3 0 1 1 3 3 2 1 1 4 5 5 6 7 7 9 10 6 5 4 1 3 2 4 3 4 6 6 6 3 2 6 3 2 7 8 15 12 6 8 16 26 28 23 21 19 16 14 14 15 14
13 13 13 13 14 14 14 14 13 11 10 10 9 9 8 9 9 9 10 10 10 8 6 5 5 5 4 2 2 2 2 1 1 1 1 1 3 3 2 2 4 4 4 4 5 6 7 5 4 6 8 10 10 7 3 5 4 3 2 2 3 1 5 6 6 6 1 3 6 3 3 7 9 11 5 5 17 24 27 25 20 17 15 14 13 11 12 11
12 13 14 14 14 14 15 15 14 13 11 10 10 9 8 8 9 9 10 10 9 8 5 5 5 4 3 2 3 3 2 1 1 1 1 2 2 3 3 3 4 5 6 6 6 6 4 3 6 7 7 6 5 4 4 4 5 4 2 2 3 1 4 5 3 5 3 3 5 3 2 6 7 11 13 18 26 25 22 21 17 14 13 14 14 12 10 9
12 13 13 14 15 14 15 15 15 14 12 11 9 8 9 8 8 9 10 10 9 8 6 5 4 3 3 3 4 3 3 3 1 0 1 2 2 2 1 1 3 5 5 4 3 2 2 2 6 5 4 4 3 4 4 3 4 4 3 0 3 2 3 4 2 5 7 2 3 4 2 8 10 17 28 28 22 20 18 18 15 12 13 14 14 13 10 8
12 12 13 13 14 15 15 15 16 15 12 11 9 7 8 9 9 10 10 10 9 7 5 4 2 1 3 4 3 3 4 4 3 1 1 2 2 1 0 0 2 4 2 2 2 3 2 2 4 2 3 5 4 5 3 3 3 2 2 1 3 3 3 4 4 4 9 5 3 4 3 11 13 16 27 26 18 17 17 14 13 12 13 14 15 14 11 8
13 12 12 13 13 14 15 15 15 15 13 11 8 7 7 9 10 8 7 8 6 4 3 4 2 1 3 5 4 5 4 5 4 3 3 2 2 1 1 0 3 2 1 1 2 5 3 3 3 1 1 2 2 4 5 5 4 3 3 3 1 3 5 6 5 4 6 5 5 3 4 10 14 14 20 23 18 15 15 11 9 10 12 15 16 14 12 9
14 13 13 13 13 14 14 15 15 15 14 10 7 6 6 7 6 4 7 7 4 2 3 5 6 5 6 6 4 5 5 5 5 3 4 4 2 3 3 0 2 0 3 1 2 5 5 4 2 3 4 4 3 4 5 5 5 5 5 4 2 3 6 5 3 6 5 4 4 3 4 10 13 13 16 20 18 12 11 9 7 10 13 15 16 14 12 9
15 14 13 13 13 13 14 15 15 14 14 11 7 5 4 5 3 4 9 8 5 5 6 7 7 6 6 5 4 4 4 5 5 5 4 4 3 5 4 1 2 0 3 1 3 4 4 3 2 4 5 5 4 4 5 5 5 4 4 2 2 3 6 4 1 6 7 4 4 4 8 13 13 11 14 15 11 7 9 10 8 11 14 15 14 13 11 8
15 15 15 14 13 13 13 14 14 13 12 10 7 6 6 7 4 5 8 7 8 8 7 6 6 5 4 4 4 4 4 4 4 5 4 4 3 3 4 1 4 1 3 2 2 5 5 1 3 3 5 5 5 4 5 4 5 4 2 0 3 2 4 5 2 5 5 3 5 6 9 14 14 11 13 10 6 6 7 8 7 10 13 13 12 12 11 9
16 15 15 14 13 13 12 13 13 12 11 8 7 7 6 6 6 7 7 6 8 7 6 5 4 4 4 3 4 5 3 3 2 3 4 4 4 2 2 3 4 1 3 3 2 1 1 2 2 4 6 6 5 4 5 4 3 2 1 1 3 4 3 3 4 6 5 1 4 5 6 10 10 7 8 6 6 6 6 6 6 7 9 10 11 11 12 11
16 16 15 15 14 13 12 12 12 11 10 8 8 7 5 6 7 9 7 4 5 5 5 5 4 3 3 3 4 5 3 2 2 3 4 2 3 1 1 4 4 3 1 1 6 5 2 3 2 4 3 4 4 3 5 3 3 2 3 3 2 2 1 3 5 7 5 3 2 5 6 6 5 4 5 4 5 6 6 5 2 2 4 6 7 8 10 11
17 16 16 15 14 13 12 11 10 10 9 7 7 7 6 6 8 10 7 2 4 5 4 4 3 3 4 3 3 4 4 2 2 3 3 2 3 2 3 4 2 3 2 1 5 3 1 1 2 4 4 4 4 0 1 4 2 4 2 4 4 3 1 3 6 7 5 4 2 4 5 6 5 4 7 5 6 6 7 5 1 1 2 3 5 7 8 8
17 16 16 16 14 13 12 9 8 9 7 6 7 8 6 5 7 10 7 4 3 4 2 3 3 2 4 3 2 1 4 3 2 2 2 2 2 3 3 2 2 2 4 3 3 1 1 1 1 4 4 5 5 1 4 5 2 2 1 3 5 5 4 3 5 5 2 3 3 4 2 5 7 6 7 5 6 7 7 6 3 3 1 3 5 6 7 7
17 16 16 16 15 13 10 9 10 9 6 6 8 8 6 4 5 7 6 5 4 3 2 3 3 2 4 2 0 3 1 4 1 2 3 2 1 2 3 1 2 2 3 4 1 1 2 3 3 4 5 4 2 2 3 5 3 2 2 4 5 5 3 1 3 3 1 3 4 4 3 2 6 7 6 3 5 7 7 7 7 6 3 3 4 5 6 7
17 17 15 15 15 13 10 9 10 9 7 7 8 8 6 4 5 4 5 3 3 1 2 1 3 2 2 1 1 3 1 4 2 1 4 4 2 1 1 2 5 3 1 3 4 4 1 2 3 4 4 2 3 3 2 3 2 2 3 4 4 3 3 4 4 1 1 3 4 4 2 1 6 7 5 3 3 6 7 7 8 7 4 2 2 3 5 6
17 17 16 14 13 12 9 8 9 9 8 8 7 7 6 4 4 4 5 1 2 2 1 1 2 1 1 1 0 0 1 2 2 2 3 4 3 2 2 3 8 6 4 3 4 3 1 1 3 5 3 3 3 0 1 1 2 3 5 4 4 4 4 4 4 2 2 3 4 4 2 0 5 7 4 2 2 6 8 7 8 10 7 4 2 2 4 5
17 17 16 14 13 11 9 8 8 8 8 9 8 7 6 3 2 5 2 3 1 1 0 1 2 2 2 1 2 3 1 0 2 3 2 2 3 4 7 6 6 6 4 6 4 1 1 1 1 2 2 3 4 3 3 3 4 6 6 4 5 4 4 3 2 3 3 3 6 5 2 0 3 6 4 3 5 6 6 5 7 10 10 7 3 1 2 4
17 16 16 15 14 12 10 8 8 7 7 8 9 7 4 2 4 5 3 3 1 2 1 1 3 3 3 2 1 3 1 2 4 3 1 3 4 4 6 4 2 3 4 4 3 2 2 2 0 1 2 4 6 4 4 4 3 5 3 3 3 4 3 3 4 4 2 4 6 4 2 1 2 6 5 5 6 5 6 7 7 10 12 9 5 2 2 3
17 16 16 15 14 12 10 9 8 7 6 5 7 7 2 0 0 3 4 3 2 2 1 2 3 2 3 1 0 2 1 2 4 4 2 1 2 0 2 3 3 1 4 3 1 3 2 1 1 1 2 3 4 3 3 3 4 4 3 4 4 4 4 2 4 2 2 5 4 3 2 1 5 9 9 9 9 8 9 10 9 12 15 11 6 3 2 3
17 17 15 14 14 13 11 10 9 8 6 4 4 4 4 2 4 5 4 2 1 1 2 2 3 2 2 1 1 1 0 1 2 3 2 1 2 3 3 3 5 2 1 2 0 2 3 4 1 1 1 2 3 3 1 1 2 3 3 3 3 1 3 3 4 3 4 3 2 3 3 3 5 7 9 11 11 9 10 11 10 12 14 10 7 4 3 3
18 17 16 14 13 13 11 10 11 9 7 5 0 3 3 2 5 4 3 4 2 2 2 2 3 4 2 0 2 2 1 1 2 2 1 2 1 2 3 3 3 4 3 2 1 2 2 5 2 1 1 0 1 3 3 3 3 3 3 4 4 4 3 4 4 3 5 3 3 4 2 3 3 3 6 9 12 13 12 13 13 14 15 11 8 6 4 4
17 17 17 15 13 13 11 10 11 8 7 4 3 4 3 4 4 2 3 4 2 1 1 2 4 3 4 3 3 2 3 2 2 2 1 1 3 3 3 4 4 4 5 3 3 2 1 6 3 1 1 1 0 2 2 3 3 2 2 4 2 3 4 2 3 4 2 3 3 2 3 5 4 7 8 6 10 13 13 13 13 15 18 15 11 8 4 4
17 16 16 15 13 11 10 10 10 9 7 3 4 1 5 4 4 3 2 1 0 2 1 2 2 1 4 4 3 3 1 1 1 1 1 2 3 4 4 4 6 7 6 5 4 2 1 5 3 3 2 2 1 1 0 0 2 1 2 2 4 3 7 4 2 0 4 1 3 1 4 6 5 7 8 6 6 9 9 9 11 17 20 16 14 10 5 6
18 16 15 14 14 12 10 9 9 10 7 5 3 4 5 4 6 6 2 0 1 2 3 1 2 2 3 3 3 3 0 1 1 1 1 3 3 5 4 3 5 8 5 3 4 3 3 3 4 2 0 2 1 1 2 1 2 3 2 4 3 2 5 4 0 3 4 1 4 1 3 6 4 5 7 8 7 8 8 6 8 14 18 17 17 12 6 7
16 17 16 13 12 10 9 9 9 10 6 5 2 5 3 4 6 5 3 3 1 3 3 2 4 2 2 2 3 2 1 1 1 1 2 2 3 5 4 2 3 3 2 4 2 2 3 2 6 1 1 2 2 0 1 2 2 2 2 2 2 3 1 1 2 1 0 2 4 4 5 4 4 5 6 6 6 7 7 5 5 11 16 18 18 13 8 8
15 15 11 8 7 6 5 8 9 9 6 4 4 4 2 4 6 6 5 4 2 2 1 4 3 1 2 3 2 2 2 3 3 2 2 2 3 4 4 2 1 0 2 7 4 2 3 1 5 2 1 1 2 0 3 1 1 1 1 2 1 3 4 2 2 3 3 2 3 4 6 4 7 6 5 8 9 7 7 6 7 12 19 21 19 13 9 9
14 10 6 5 7 7 3 7 8 8 4 3 5 3 1 3 6 7 9 6 3 3 2 3 1 2 3 3 2 2 1 2 4 2 2 2 3 4 3 2 3 2 2 4 3 0 3 1 4 4 3 1 1 3 5 5 3 2 1 1 1 1 2 1 0 2 4 3 2 1 4 7 7 5 7 11 10 7 8 7 8 14 21 24 19 14 10 10
11 6 5 5 7 8 2 7 6 5 3 2 3 2 1 2 4 4 8 9 6 3 3 3 3 3 2 2 3 3 2 2 3 3 3 3 3 3 2 3 5 5 3 2 2 2 2 2 3 2 2 3 5 4 3 4 3 4 4 4 4 4 4 2 3 2 2 3 4 4 2 9 7 5 7 9 8 7 9 8 9 16 24 25 20 15 12 11
7 4 6 4 5 9 2 5 2 2 3 3 4 4 4 4 3 3 5 7 6 4 2 2 3 4 3 3 3 3 3 2 2 3 3 5 5 4 2 4 5 6 5 2 3 3 3 4 3 2 4 5 5 3 1 1 0 1 2 2 3 4 5 5 4 3 1 2 2 4 1 8 7 5 7 8 8 10 11 11 13 19 24 23 18 15 13 11
7 12 13 8 8 10 4 3 3 1 3 3 3 5 6 5 2 1 3 4 4 3 2 2 3 4 4 3 3 3 4 3 4 5 4 4 4 4 3 6 5 5 4 2 2 3 3 3 2 3 4 3 4 3 1 1 2 0 3 2 3 3 3 5 5 4 3 3 3 3 2 8 7 3 6 9 11 13 15 15 17 21 22 19 17 16 12 10
13 20 21 14 11 8 4 3 2 3 5 3 1 3 5 5 5 4 4 5 5 3 2 2 4 7 6 2 3 4 5 4 4 6 4 3 3 3 2 6 6 4 3 1 2 6 4 2 3 1 4 5 5 5 3 2 1 3 3 2 3 3 6 4 2 3 0 5 7 5 4 9 7 3 4 8 8 10 14 14 15 19 19 17 18 18 13 11
13 14 14 11 9 10 9 6 3 3 4 3 3 4 4 4 7 10 9 8 9 7 3 2 3 4 3 2 2 2 4 4 4 3 2 2 3 3 2 5 6 3 3 2 3 5 4 2 4 5 3 5 3 3 3 3 2 2 2 4 5 5 8 5 2 3 3 5 7 6 7 9 8 5 5 7 6 7 11 11 12 17 19 17 19 21 19 16
7 5 5 7 6 12 13 9 5 3 2 1 3 3 6 5 5 8 10 8 9 9 5 3 2 2 1 1 1 3 5 5 2 1 2 3 3 2 1 4 5 4 3 0 3 3 2 1 4 7 8 8 7 6 5 3 4 3 4 5 6 7 7 5 4 4 5 4 4 8 9 8 14 13 8 7 7 7 8 10 13 17 19 19 20 22 23 22
2 2 2 4 4 7 8 8 7 6 3 3 2 2 6 7 4 3 7 6 6 7 6 4 4 4 3 3 3 4 5 4 2 1 3 4 3 3 1 2 4 6 3 2 4 3 4 2 6 7 9 9 6 5 4 3 3 5 6 6 7 8 6 7 7 7 6 7 5 11 7 5 15 19 13 9 8 8 7 12 18 21 21 22 23 24 26 28
4 3 2 2 3 2 2 4 7 8 6 4 2 1 3 6 5 4 5 4 3 6 6 4 5 8 7 6 5 4 3 2 3 3 3 3 3 2 1 2 4 6 5 3 3 4 4 4 5 5 8 9 4 3 4 4 3 4 6 8 9 10 11 14 14 9 8 7 10 8 6 8 14 18 16 11 7 9 13 16 21 24 25 28 28 29 32 35
7 7 7 6 6 5 6 8 8 7 8 5 3 4 7 8 8 6 3 1 3 6 9 7 7 8 8 7 6 6 6 5 5 3 2 4 4 2 2 3 3 4 4 3 2 3 3 3 3 3 5 8 4 2 3 5 4 3 6 8 10 13 17 18 15 10 9 11 13 8 2 7 16 18 18 15 9 12 20 20 20 25 28 29 31 32 34 35
7 7 8 9 10 12 14 14 9 4 5 5 5 7 7 8 9 6 3 4 5 3 6 10 10 7 6 7 9 12 12 8 6 6 6 6 5 3 4 4 3 3 2 2 1 3 4 3 1 3 3 8 4 2 1 5 6 7 7 5 7 11 11 10 10 9 8 10 14 11 6 11 20 19 17 21 18 14 17 20 23 27 28 28 31 31 30 28
12 12 12 11 9 9 11 10 6 3 4 5 6 5 3 6 9 7 6 12 16 9 6 9 9 5 5 8 11 17 16 10 10 12 9 7 7 5 5 5 6 6 3 3 2 2 4 3 2 4 2 7 3 3 2 1 2 7 7 6 11 11 7 7 9 8 9 11 12 9 5 11 19 12 7 13 14 10 14 21 24 26 26 24 26 27 24 23
14 16 16 13 8 7 8 6 3 4 6 5 5 5 5 7 9 8 7 13 20 22 18 14 8 4 5 11 15 20 21 18 22 23 15 12 12 9 8 8 8 8 6 5 2 2 4 3 1 3 3 6 5 3 1 3 3 7 7 12 17 12 7 8 8 8 12 12 8 8 10 14 14 8 7 11 10 8 13 19 21 22 22 23 25 24 23 23
Wind_Direction
69 74 73 68 64 60 55 46 39 37 33 27 23 26 29 25 26 19 188 170 174 200 301 319 337 342 346 348 349 355 345 345 15 5 266 238 217 194 182 177 167 156 141 143 153 158 173 176 192 214 247 250 280 269 231 35 152 161 132 96 115 154 189 179 181 189 148 175 185 183 185 178 203 205 213 241 244 245 250 247 242 242 245 249 252 251 252 255
52 61 64 61 58 58 52 40 28 20 21 24 22 24 25 24 21 7 258 234 251 273 297 311 325 331 331 336 338 337 316 262 10 17 337 208 186 179 171 168 160 147 137 143 159 169 185 199 236 252 265 242 266 255 154 56 122 135 121 79 186 201 194 179 177 185 156 57 166 183 190 194 205 191 202 232 247 242 250 254 246 247 250 251 252 251 251 252
26 32 40 43 39 42 42 35 24 10 7 11 17 18 19 22 23 15 307 290 285 285 297 306 314 320 320 326 331 327 289 228 342 13 15 292 196 183 170 169 162 156 158 168 182 196 212 237 262 267 257 223 251 182 144 10 15 111 91 71 235 203 181 184 166 174 195 62 158 179 194 206 215 195 194 223 257 253 241 248 240 243 252 255 255 253 254 255
2 358 357 1 0 5 9 9 10 1 356 356 2 8 11 15 18 8 325 309 299 291 291 294 301 310 310 319 330 322 251 237 328 358 0 330 224 195 181 181 181 185 197 199 207 229 244 263 265 262 244 228 327 197 9 15 18 63 93 145 204 162 125 178 177 28 228 218 185 175 176 212 224 211 216 221 269 265 246 249 247 250 261 270 270 267 262 260
349 340 332 332 329 330 334 336 344 346 348 347 348 354 1 7 11 3 345 332 318 301 293 292 293 299 302 320 331 319 266 0 334 342 339 307 246 214 195 192 199 208 217 220 241 261 266 271 251 244 244 262 1 32 17 26 63 69 46 231 171 129 118 180 189 225 213 196 179 164 156 208 217 215 228 217 215 248 251 259 262 265 273 280 280 278 271 265
351 339 325 318 317 315 318 322 327 335 344 346 342 343 350 358 1 0 352 344 335 317 306 301 289 297 310 325 334 319 312 357 300 324 326 306 272 241 212 201 208 216 227 235 259 276 276 264 226 227 34 38 16 51 35 14 52 87 15 252 156 138 109 149 177 165 170 178 175 170 186 208 193 225 239 226 234 249 256 264 269 275 277 278 279 278 276 272
357 348 333 320 314 309 309 311 314 319 332 340 339 335 339 347 351 355 354 350 346 334 326 317 295 304 314 322 332 326 308 270 284 310 318 315 282 246 226 215 220 225 234 246 267 280 285 252 207 188 76 63 54 92 26 7 53 97 134 180 156 153 97 103 98 123 124 169 193 180 197 203 197 230 256 242 249 257 264 267 270 274 275 276 277 277 276 275
356 352 344 335 322 313 308 305 306 307 314 324 331 329 327 336 344 349 353 353 352 344 328 310 298 305 311 314 318 316 309 302 304 307 313 314 286 251 232 230 234 237 243 252 270 277 292 272 206 177 93 76 144 124 10 13 49 69 144 177 139 119 104 93 75 91 98 98 173 191 222 228 224 250 275 263 266 273 275 275 274 273 273 272 273 275 276 275
352 351 348 343 335 325 313 306 305 304 306 312 320 324 321 324 333 340 348 354 355 348 327 311 306 305 301 301 310 312 310 321 323 314 315 311 286 255 235 241 239 242 249 252 269 270 279 280 225 224 191 131 111 49 9 25 24 56 126 149 123 103 97 100 87 66 50 15 32 240 263 271 258 276 273 270 280 287 280 278 275 270 269 270 274 279 282 283
347 347 346 343 340 335 325 312 305 304 305 307 312 320 322 319 323 329 340 352 354 344 332 329 329 327 308 289 298 317 321 325 328 326 327 322 297 253 234 241 240 242 246 248 268 266 272 288 234 210 173 137 99 36 19 64 99 100 113 111 83 83 95 63 59 19 358 313 312 266 281 293 269 249 269 274 289 292 285 283 276 274 278 283 286 287 289 291
342 344 343 341 339 337 333 323 310 304 303 306 309 314 322 322 320 322 331 345 351 342 327 329 354 0 346 311 285 263 315 324 335 337 338 342 338 268 232 234 242 242 238 247 256 223 271 341 164 160 159 155 105 53 66 91 106 105 111 102 36 41 80 23 18 354 348 327 320 280 271 294 150 173 253 268 282 291 295 293 288 287 289 292 290 289 289 287
337 340 340 338 336 335 334 330 318 306 300 302 306 309 318 324 322 320 325 336 344 340 322 307 323 332 329 318 294 254 289 315 335 340 352 2 356 310 237 241 261 245 234 239 208 145 356 211 184 188 151 151 138 70 92 90 99 89 79 98 349 16 42 9 14 358 351 309 317 316 291 304 207 220 245 275 292 295 299 297 298 296 293 294 292 291 286 281
332 335 338 337 334 333 332 331 325 313 301 296 300 306 312 320 323 320 320 329 335 335 322 298 304 317 316 305 295 265 258 288 325 346 12 14 7 339 256 256 281 219 209 219 212 264 313 222 205 182 137 141 137 112 116 74 80 63 34 85 356 5 10 1 13 349 343 283 316 353 318 296 234 239 260 298 302 307 312 307 305 302 300 301 298 293 285 276
327 329 333 335 334 332 330 331 328 319 305 295 294 300 307 314 319 321 320 320 325 329 318 300 303 315 321 302 287 263 246 301 329 355 19 19 24 23 318 183 136 135 148 149 171 154 100 98 126 137 113 113 120 116 101 26 47 45 1 59 34 10 296 339 12 355 356 305 343 48 272 281 266 275 289 317 323 328 320 311 311 312 314 316 313 304 291 278
324 325 328 331 333 331 329 330 330 325 311 297 291 292 302 310 313 319 320 316 319 322 310 298 297 295 309 301 257 251 254 316 352 23 20 6 19 33 62 123 135 127 126 114 99 103 103 99 113 112 94 100 111 103 33 1 21 36 28 318 354 25 272 316 10 15 22 285 345 57 236 279 280 289 314 326 318 324 317 310 315 321 329 339 338 327 307 289
322 323 324 327 330 331 329 329 329 327 316 303 293 287 294 303 309 315 315 314 313 315 308 300 296 276 291 303 245 255 252 263 357 59 40 25 13 20 55 96 130 130 126 112 89 89 88 91 97 92 95 100 94 77 44 16 355 3 58 254 288 321 295 314 2 1 348 269 332 23 254 283 279 285 302 310 315 321 314 308 317 327 340 355 354 344 326 307
323 324 323 325 327 329 329 330 329 327 320 309 296 283 288 296 308 311 311 314 310 305 300 290 294 269 267 279 250 251 235 229 266 105 20 21 10 2 34 89 138 139 135 116 77 59 38 95 112 87 65 63 57 84 59 356 318 330 22 11 262 234 284 310 300 335 358 356 318 359 255 261 271 288 300 310 321 319 308 307 318 335 346 358 1 354 345 329
327 326 326 325 325 327 328 330 329 326 322 313 302 282 280 290 304 307 307 314 309 299 288 279 301 252 257 275 250 246 231 226 242 241 288 331 337 329 340 2 143 140 137 129 30 19 27 84 116 68 22 30 27 77 106 227 220 267 302 338 315 298 254 269 271 335 9 10 319 341 283 274 282 291 301 312 326 315 304 307 314 335 348 354 359 358 355 348
330 329 330 327 326 327 328 331 331 328 323 317 308 289 278 290 298 295 300 313 312 287 256 276 302 223 267 295 271 250 241 229 237 249 264 292 318 229 183 88 174 150 23 212 351 18 37 61 86 92 7 19 14 102 146 187 160 163 186 158 193 291 272 257 264 308 0 346 306 300 273 285 295 299 303 312 323 315 302 304 317 341 348 345 350 356 359 0
330 331 332 331 329 328 329 332 333 331 327 320 316 303 297 313 306 296 317 324 329 306 271 287 293 275 285 305 278 255 252 233 232 248 263 276 267 202 186 188 197 32 16 220 291 358 36 67 110 201 199 180 193 148 124 122 110 112 107 96 178 241 284 276 280 308 344 340 286 292 293 284 287 287 291 306 319 316 309 319 339 348 346 343 345 352 3 10
328 330 333 335 332 330 332 333 334 337 332 328 338 345 4 10 355 325 327 323 322 320 298 291 294 286 288 302 293 280 264 236 235 250 271 281 240 195 209 225 129 105 347 267 263 341 41 92 182 215 189 163 164 134 101 88 76 82 112 71 309 239 266 268 260 306 350 13 286 339 335 291 285 286 286 302 315 310 315 328 338 342 344 346 345 351 7 19
321 326 332 335 334 331 333 335 337 342 340 337 356 21 45 43 27 342 331 306 297 299 285 282 285 278 280 289 302 310 278 240 242 251 271 274 228 215 231 118 96 186 339 5 287 355 32 151 211 197 155 109 80 80 80 85 83 74 127 88 326 279 279 295 323 322 352 6 289 352 348 293 288 291 283 290 288 283 311 318 324 336 341 347 350 356 14 32
313 318 326 331 335 333 331 336 338 343 346 349 9 23 40 39 23 3 343 297 290 288 268 263 262 261 273 283 304 327 304 250 250 270 296 271 224 234 209 117 93 151 16 27 159 105 37 211 177 158 149 108 65 47 73 85 80 71 139 123 292 304 350 309 314 333 338 345 289 319 318 287 298 301 275 275 271 281 312 312 316 337 343 352 357 1 16 33
312 312 316 325 333 333 330 334 335 342 352 6 18 17 21 21 13 1 342 296 287 285 256 243 240 243 254 271 296 328 334 270 284 316 331 295 190 176 121 110 96 123 23 32 137 138 199 232 141 125 120 117 104 46 81 95 342 317 174 151 231 276 19 257 295 331 336 25 351 324 322 295 317 316 261 284 302 295 322 331 336 16 358 355 4 13 20 28
317 313 311 316 327 332 330 330 337 347 355 10 14 7 4 1 2 358 353 351 308 290 244 231 242 234 227 248 286 322 337 296 295 321 342 30 154 149 94 96 109 158 208 169 120 114 197 212 164 114 62 84 117 3 167 142 322 307 219 166 165 166 144 304 327 350 7 21 5 16 2 298 316 307 254 296 335 306 325 345 345 99 15 8 17 25 28 28
319 317 314 312 317 330 331 332 345 348 349 3 3 358 348 342 1 360 11 46 321 279 199 200 210 210 220 247 288 327 333 312 327 341 0 72 130 148 122 73 50 148 179 150 106 93 137 87 107 121 100 81 85 265 223 143 108 312 247 150 134 114 88 16 2 18 16 312 313 53 84 264 314 305 257 306 334 303 319 328 283 254 317 7 17 20 23 23
317 318 319 313 312 325 334 335 338 341 349 355 353 351 339 341 4 359 20 33 307 252 148 175 176 195 226 260 274 147 298 312 13 22 31 48 351 157 170 271 60 118 168 138 129 262 120 75 50 84 95 90 94 240 212 131 120 255 225 123 107 91 91 108 62 61 242 283 329 31 102 233 297 280 265 314 314 302 313 301 278 260 269 344 4 9 11 11
318 317 320 317 311 317 330 329 324 332 340 338 346 347 336 337 337 354 62 54 293 164 97 180 166 174 212 230 205 166 313 348 52 343 10 32 2 147 208 223 150 150 49 136 219 264 84 137 176 123 99 142 209 219 186 130 88 237 194 120 102 104 123 128 97 90 299 347 322 330 53 225 269 275 305 344 271 278 278 262 260 248 243 308 348 13 18 11
320 316 317 318 310 307 314 317 313 320 322 322 334 334 331 329 327 29 84 140 287 85 76 225 175 203 17 86 28 139 25 21 49 320 346 31 12 37 86 118 128 119 45 82 177 233 51 179 196 149 146 208 207 178 162 125 73 158 149 92 68 75 78 83 93 111 40 9 257 267 28 351 267 282 313 356 262 252 248 247 246 235 237 260 290 23 30 13
320 318 316 315 311 301 297 304 306 307 313 317 318 325 338 343 37 67 91 238 283 11 56 203 227 293 6 90 354 359 99 302 5 11 8 42 28 59 102 104 105 105 38 37 86 158 17 55 96 115 144 166 134 80 36 69 106 133 122 72 54 44 47 60 63 94 62 315 251 253 334 16 285 285 249 214 232 215 202 236 251 238 236 237 238 346 16 10
320 319 316 314 312 304 293 292 294 293 303 308 309 319 336 0 70 100 191 246 305 304 1 334 292 3 59 132 286 338 40 355 354 44 41 32 42 61 99 102 76 67 14 7 51 336 359 68 45 93 130 130 113 71 32 56 96 110 97 64 43 357 16 35 355 34 95 267 260 260 289 158 240 268 246 239 260 234 187 198 217 225 226 221 214 232 331 352
316 316 316 314 310 306 292 279 279 283 292 302 308 321 349 105 56 173 228 319 353 289 0 356 312 19 44 81 245 321 0 0 8 57 98 47 36 283 145 163 185 30 328 282 270 313 289 218 276 81 159 165 127 88 31 21 40 73 83 68 49 344 357 351 316 339 206 246 269 281 297 227 233 250 257 262 264 250 222 211 209 212 211 209 211 220 284 322
310 312 314 312 309 306 290 273 270 268 275 288 307 359 64 114 236 220 234 293 303 284 29 21 330 345 19 21 258 307 303 232 2 49 133 100 8 285 253 197 169 138 275 229 271 320 296 299 314 122 219 209 151 141 155 339 71 124 143 113 114 90 30 305 281 292 271 262 278 285 295 286 277 266 244 244 252 249 242 245 248 229 210 205 215 224 268 291
303 308 310 310 308 303 290 271 263 261 267 271 2 67 85 215 250 243 246 251 253 16 46 44 357 347 359 263 260 259 205 271 30 80 66 45 39 277 270 237 184 111 99 150 221 182 244 286 266 165 235 190 164 174 169 142 125 176 173 124 140 151 154 246 243 241 268 294 305 297 286 209 242 266 225 235 266 273 263 258 261 241 217 212 227 235 259 282
298 303 307 310 307 299 291 269 256 258 256 242 83 87 171 223 253 258 255 251 270 12 16 34 54 19 329 297 300 284 192 262 17 94 50 115 181 207 215 211 201 138 116 165 239 143 198 264 268 340 303 125 83 223 149 102 114 207 150 104 163 180 145 174 191 184 204 328 307 275 242 217 223 277 279 279 284 280 269 260 255 234 215 214 232 238 247 273
293 296 299 305 303 293 289 269 251 249 240 191 89 142 210 216 210 204 236 289 328 129 112 3 63 73 302 293 315 338 134 236 354 74 281 235 207 211 213 214 197 177 151 159 211 152 130 275 300 3 342 62 60 245 19 71 188 177 128 172 229 167 113 115 199 11 71 34 284 263 262 289 318 298 305 342 319 293 284 266 241 218 209 215 228 228 238 262
295 297 298 300 300 290 279 265 245 239 224 150 131 217 219 220 201 189 184 8 303 117 113 313 252 195 253 276 294 310 348 271 316 69 246 263 247 205 216 254 199 195 195 167 213 202 155 265 302 48 66 350 357 259 351 357 141 117 166 220 229 112 93 102 155 357 43 225 278 314 264 293 324 298 315 341 318 291 286 268 238 218 211 219 225 223 237 256
308 307 305 302 302 291 265 249 236 223 193 135 190 233 207 213 212 191 164 155 147 57 85 223 240 199 191 234 279 272 176 231 247 191 203 260 263 198 183 231 178 197 218 148 205 263 138 249 296 352 169 313 0 78 323 354 79 129 191 218 125 137 138 78 136 200 283 256 284 308 297 273 226 235 288 300 274 270 278 270 243 227 218 220 223 220 232 253
324 317 312 306 308 307 258 231 219 199 168 143 215 233 211 231 242 228 202 177 146 111 142 241 257 349 169 181 226 237 200 208 199 190 186 199 251 208 179 198 168 8 151 140 163 254 116 183 281 288 239 292 14 169 210 228 47 81 326 338 20 154 171 162 139 166 192 233 269 313 330 280 228 215 220 242 244 245 254 245 228 225 220 220 221 218 230 254
336 328 310 303 322 332 273 212 192 171 157 173 200 209 225 258 268 249 220 210 179 155 200 232 236 277 234 196 201 203 191 198 179 190 230 216 248 243 209 174 137 144 147 128 142 128 84 145 253 286 308 258 210 212 197 186 162 138 156 235 248 140 141 168 37 129 145 163 196 254 311 274 250 201 199 234 246 230 223 223 228 227 221 221 223 221 232 253
342 331 284 291 346 356 284 196 181 160 159 212 210 210 238 238 276 264 222 216 219 219 213 185 176 209 221 226 236 199 172 196 188 207 248 229 232 256 228 165 154 151 131 108 166 180 138 159 189 264 284 215 235 252 210 200 183 165 184 198 188 156 123 136 280 291 111 150 184 159 261 273 258 192 206 235 239 233 231 226 238 236 224 223 227 223 231 251
341 291 255 247 356 354 310 197 206 155 165 208 207 204 217 228 255 253 213 213 227 242 233 190 188 195 192 212 225 180 169 200 196 202 240 229 223 239 206 167 166 159 140 143 215 197 139 117 130 231 223 215 254 282 193 221 141 138 220 214 162 147 131 144 214 247 133 142 160 114 208 271 261 196 209 236 242 251 252 239 243 240 228 226 225 219 228 246
311 282 277 268 297 317 286 237 292 270 222 236 207 216 228 220 204 182 188 206 225 232 232 230 203 207 220 205 175 183 199 202 191 197 228 240 235 257 207 167 165 166 146 139 204 166 126 109 142 271 295 307 309 325 31 42 61 143 256 206 154 170 149 152 177 178 155 165 149 108 250 268 274 236 225 248 258 266 264 251 246 242 234 229 220 211 225 246
309 296 297 290 282 280 236 221 242 236 256 270 250 251 248 230 211 199 189 195 201 186 184 238 214 215 230 176 138 196 208 208 217 211 212 220 235 271 213 179 183 188 185 219 174 166 181 172 121 67 329 331 338 344 337 319 213 219 241 204 179 136 104 116 146 106 179 207 162 145 241 256 271 294 272 265 267 274 270 257 246 243 240 233 220 214 226 250
319 305 306 305 273 243 237 236 196 206 247 264 277 259 243 252 235 221 219 218 211 197 189 262 233 206 214 133 120 221 210 218 247 230 198 219 249 277 236 207 207 217 279 289 153 160 186 186 135 143 209 240 247 265 256 232 199 216 224 200 197 162 136 148 138 116 233 224 154 159 230 253 279 295 279 273 276 279 272 256 242 244 248 244 230 226 234 247
330 309 314 331 277 231 239 254 247 247 243 216 289 257 212 239 258 226 223 228 222 206 205 256 231 157 111 148 204 254 230 223 232 232 234 237 259 293 225 219 223 234 287 319 152 148 111 208 200 183 201 213 203 213 216 152 133 192 210 192 193 190 167 135 114 163 199 167 166 224 233 268 289 277 254 254 259 261 265 255 248 248 251 250 242 239 244 248
313 299 285 339 304 243 248 263 247 247 240 191 232 240 205 225 262 237 219 225 222 205 217 243 191 185 209 175 195 248 233 214 191 196 230 232 265 300 236 217 230 229 232 168 173 146 91 262 236 205 223 231 201 194 190 138 167 198 187 182 191 190 169 160 191 203 151 123 233 251 218 226 271 271 261 250 245 250 254 253 256 258 258 260 260 259 261 263
234 279 270 300 306 247 236 274 247 236 236 217 211 247 223 224 227 219 216 227 222 196 205 236 207 208 211 178 181 239 228 208 222 212 214 229 255 310 282 250 229 211 197 173 189 152 128 241 230 192 242 254 229 196 178 171 213 196 177 185 183 177 183 200 213 200 147 174 238 242 164 197 253 269 269 254 219 235 254 256 261 266 267 268 270 271 273 274
243 267 281 290 287 265 274 295 289 254 236 234 244 242 236 231 227 228 210 206 263 217 201 223 230 212 209 195 194 225 222 217 238 228 193 225 228 197 230 252 223 199 181 161 212 187 160 236 223 176 261 275 266 238 194 200 226 222 207 197 180 188 200 208 216 207 192 223 250 255 230 260 264 264 269 274 262 253 265 267 262 262 264 266 271 273 275 277
249 262 296 309 294 284 286 282 279 272 238 228 236 235 236 238 240 249 227 200 248 244 189 223 236 204 199 213 215 233 231 207 217 233 201 206 228 200 212 224 169 168 193 167 223 205 183 235 209 113 288 286 291 358 222 202 213 232 237 215 197 209 213 220 232 224 216 243 259 269 298 286 270 264 269 276 273 260 262 263 258 260 264 268 272 275 276 279
251 256 286 307 292 278 281 266 240 241 237 220 228 235 240 241 235 242 249 235 237 235 192 216 233 207 214 226 223 240 246 224 229 244 224 217 236 218 214 213 156 142 182 194 178 161 177 238 25 84 262 276 316 14 347 145 214 247 258 246 227 216 199 213 223 205 201 221 241 264 282 258 261 274 280 267 261 242 243 253 258 265 270 271 271 272 275 280
263 259 268 285 284 254 255 254 217 230 245 231 223 229 239 245 229 221 248 249 240 240 240 234 220 179 222 243 240 245 255 257 255 260 266 270 263 246 240 231 185 159 169 174 160 157 164 177 157 130 212 269 304 342 22 37 308 260 235 223 220 208 197 227 234 214 209 206 206 227 235 241 258 290 294 271 262 238 247 259 265 271 276 274 269 268 270 275